Regional Weather Roundup
Issued by NWS Kansas City/Pleasant Hill, MO

Home | Current Version | Previous Version | Text Only | Print | Product List | Glossary On
Versions: 1 2 3 4 5 6 7 8 9 10 11 12 13 14 15 16 17 18 19 20 21 22 23 24 25 26 27 28 29 30 31 32 33 34 35 36 37 38 39 40 41 42 43 44 45 46 47 48 49 50
000
ASUS43 KEAX 250104
RWREAX

WEATHER ROUNDUP FOR EASTERN KANSAS AND NORTHWEST MISSOURI
NATIONAL WEATHER SERVICE KANSAS CITY/PLEASANT HILL MO
700 PM CST WED DEC 24 2014

KSZ040-057-103>105-MOZ028-029-037-043-250200-
...KANSAS CITY METROPOLITAN AREA...

CITY           SKY/WX    TMP DP  RH WIND       PRES   REMARKS
K.C. INTL      CLOUDY    34  29  82 W9        29.83S WCI  27
K.C. DOWNTOWN  CLOUDY    36  28  73 W8        29.85R WCI  30
LEES SUMMIT    CLOUDY    35  28  75 SW9       29.85R WCI  28
OLATHE - IXD   CLOUDY    34  29  82 SW14      29.85S WCI  25
OLATHE - OJC   CLOUDY    34  29  82 W10       29.84R WCI  26
LAWRENCE       CLOUDY    34  29  82 W13       29.86S WCI  25

$$

MOZ001>008-011>017-020>025-030>033-038>040-044>046-053-054-250200-
...NORTHERN AND CENTRAL MISSOURI...

CITY           SKY/WX    TMP DP  RH WIND       PRES   REMARKS
ST. JOSEPH     CLOUDY    34  29  82 SW12      29.84R WCI  25
MOSBY          CLOUDY    36  30  80 W9        29.84S WCI  29
WHITEMAN AFB   NOT AVBL
CLINTON        CLOUDY    37  32  81 W8        29.87R WCI  31
SEDALIA        CLOUDY    37  31  78 W8        29.84R WCI  31
WARSAW         NOT AVBL
MARSHALL       MOCLDY    39  36  87 W8        29.83  WCI  34
CHILLICOTHE      N/A     36  29  75 W7        29.82S WCI  30
KIRKSVILLE     CLOUDY    35  31  85 W10       29.78R WCI  27

$$

MOZ041-047>049-056>058-063>065-088>090-097-250200-
...EASTERN AND SOUTHERN MISSOURI...

CITY           SKY/WX    TMP DP  RH WIND       PRES   REMARKS
ST. LOUIS INTL CLOUDY    39  33  79 W13       29.79R WCI  31
SPIRIT OF STL  LGT RAIN  38  34  85 W9        29.79R WCI  31
COLUMBIA       CLOUDY    37  33  85 W15       29.81R WCI  28
JEFFERSON CITY CLOUDY    38  33  82 W9        29.83R WCI  31
HANNIBAL       CLOUDY    37  32  81 W10       29.77R WCI  30
ROLLA          CLOUDY    35  32  88 W16       29.80R WCI  25
LEBANON        CLOUDY    36  32  87 W9        29.85R WCI  29
OSAGE BEACH    CLOUDY    37  30  75 W6        29.84R WCI  33
SPRINGFIELD    CLOUDY    37  30  75 W8        29.88R WCI  31
BRANSON        CLOUDY    37  32  81 W7        29.91R WCI  32
NEVADA         CLOUDY    36  30  80 W8        29.91R WCI  29
JOPLIN         CLOUDY    36  30  79 W9        29.93R WCI  29
WEST PLAINS    CLOUDY    37  30  75 W8        29.87R WCI  31

$$

IAZ060-094-KSZ022-034>040-054-083-096-NEZ052-066-093-250200-
...KANSAS...SOUTHEAST NEBRASKA AND IOWA...

CITY           SKY/WX    TMP DP  RH WIND       PRES   REMARKS
TOPEKA         CLOUDY    36  29  75 SW7       29.86S WCI  30
MANHATTAN      CLEAR     28  25  88 CALM      29.83S
EMPORIA        CLEAR     28  26  92 S7        29.86R WCI  21
CHANUTE        CLEAR     33  29  85 S5        29.91R WCI  29
WICHITA        PTCLDY    34  24  67 SW6       29.87R WCI  29
OMAHA          CLOUDY    31  26  82 S8        29.77F WCI  23
LINCOLN        CLEAR     27  24  89 S8        29.74F WCI  19
FALLS CITY     CLOUDY    32  28  85 SW8       29.81S WCI  25
LAMONI         CLOUDY    32  29  88 W16       29.77R WCI  21
DES MOINES     CLOUDY    33  29  85 W10       29.75R WCI  25

$$




USA.gov is the U.S. government's official web portal to all federal, state and local government web resources and services.